[[{"header":{"parameterUnit":"m.s-1","parameterCategory":1,"la1":30.2991,"la2":30.254,"lo1":-89.0895,"lo2":-89.0444,"dy":0.0017,"dx":0.0017,"nx":28,"ny":28,"refTime":"2025-07-29T03:00:00:Z","depth":0,"parameterNumber":2,"parameterNumberName":"U-component_of_WINDS"},"data":[0,0,0,0,0,0,0,0,0,0,0,0,0,0,0,0,0,0,0,0,0,0,0,0,0,0,0,0,0,0,0,0,0,0,0,0,0,0,0,0,0,0,0,0,0,0,0,0,0,0,0,0,0,0,0,0,0,0,0.6132,0.6133,0,0.6177,0.6177,0.6178,0.614,0.6138,0.6137,0.6135,0.6186,0.6189,0.6192,0,0,0,0,0,0,0,0,0,0,0,0,0,0.6021,0.6024,0.6132,0.6133,0.6133,0.6177,0.6177,0.6178,0.614,0.6138,0.6136,0.6135,0.6185,0.6189,0.6192,0,0,0,0,0,0,0,0,0,0,0,0,0,0.6068,0.6024,0.6132,0.612,0.6119,0.6176,0.6177,0.6178,0.6141,0.6138,0.6136,0.6134,0.6184,0.6188,0.6192,0.6266,0,0,0.6205,0.6207,0,0,0,0,0,0,0,0,0.6066,0.6072,0.6121,0.6121,0.612,0.615,0.6157,0.6208,0.6141,0.6133,0.6135,0.6132,0.6176,0.6181,0.6195,0.6269,0.6271,0.6206,0.6208,0.621,0.6211,0,0,0,0,0,0,0,0.6062,0.607,0.615,0.6122,0.6121,0.6114,0.6118,0.6166,0.6168,0.6133,0.613,0.6136,0.6176,0.6191,0.6196,0.6271,0.6206,0.6209,0.6212,0.6214,0.6411,0.6414,0,0,0,0,0,0,0.606,0.6068,0.6149,0.6151,0.6086,0.6118,0.6122,0.6143,0.6167,0.6168,0.6138,0.6134,0.6185,0.6191,0.6197,0.6288,0.621,0.6214,0.6217,0.6409,0.6412,0.6415,0,0,0,0,0,0,0.6057,0.6067,0.6147,0.6109,0.6118,0.6122,0.6146,0.6145,0.616,0.617,0.6171,0.6153,0.6183,0.6191,0.625,0.6289,0.6216,0.622,0.6405,0.641,0.6413,0.6467,0,0,0,0,0,0,0.6054,0.6066,0.6093,0.611,0.612,0.6196,0.6148,0.6148,0.6167,0.6162,0.6184,0.6186,0.6182,0.6244,0.6254,0.6293,0.6223,0.6402,0.6407,0.6412,0.6462,0.6473,0.6482,0,0,0,0,0,0.605,0.6107,0.6094,0.6104,0.6153,0.6199,0.6205,0.6198,0.617,0.6198,0.6205,0.6185,0.6282,0.625,0.6261,0.6302,0.64,0.6406,0.6412,0.6458,0.6471,0.6481,0,0,0,0,0,0,0.6096,0.6109,0.6095,0.6158,0.6177,0.6192,0.6227,0.6211,0.624,0.6235,0.6226,0.6232,0.6294,0.6304,0.6267,0.6377,0.6337,0.6346,0.6368,0.638,0.639,0.6387,0.6227,0,0,0,0,0,0.6113,0.6147,0.6157,0.6212,0.6222,0.6223,0.6242,0.6235,0.6256,0.6264,0.6275,0.6297,0.6333,0.6357,0.639,0.6463,0.6469,0.6497,0.6507,0.6515,0.6523,0.6565,0.6579,0.6435,0.6435,0.6435,0,0,0.6149,0.616,0.6183,0.6221,0.6235,0.6273,0.623,0.6271,0.63,0.6271,0.6327,0.6336,0.636,0.6427,0.6457,0.6437,0.6564,0.6523,0.6529,0.6533,0.6573,0.6587,0.6599,0.6439,0.6438,0.6438,0,0,0.6235,0.6245,0.6293,0.6309,0.633,0.6331,0.6342,0.636,0.6364,0.642,0.64,0.6435,0.6496,0.6515,0.6532,0.6627,0.6612,0.6639,0.6691,0.6732,0.6743,0.6753,0.679,0.6803,0.6646,0.6647,0.6647,0,0.6278,0.6332,0.6321,0.6364,0.6383,0.6357,0.6407,0.6423,0.6455,0.647,0.6447,0.6524,0.6539,0.6611,0.6634,0.6648,0.6664,0.6637,0.6742,0.6752,0.6761,0.6796,0.681,0.665,0.6649,0.6649,0.6649,0,0.6385,0.6423,0.6459,0.649,0.6513,0.6559,0.6558,0.6583,0.6574,0.6578,0.6636,0.6653,0.669,0.6706,0.6698,0.6778,0.6766,0.6743,0.6703,0.6779,0.6811,0.6824,0.6655,0.6653,0.6652,0.6652,0,0,0.65,0.6525,0.6539,0.6553,0.6576,0.6606,0.6653,0.6688,0.6711,0.6735,0.6775,0.6828,0.6808,0.6828,0.6822,0.6858,0.6936,0.6831,0.6831,0.6852,0.7028,0.7047,0.7062,0.6924,0.6927,0.6929,0.7027,0,0.6589,0.6668,0.666,0.6736,0.6773,0.675,0.6791,0.6811,0.6816,0.685,0.6856,0.6895,0.6863,0.6875,0.691,0.6919,0.6971,0.6911,0.6965,0.6967,0.6962,0.7079,0.7098,0.719,0.7039,0.7041,0.7043,0,0.6702,0.6729,0.6808,0.6828,0.6843,0.6879,0.6913,0.6944,0.6967,0.6969,0.6992,0.6981,0.7031,0.6988,0.7059,0.7018,0.704,0.7048,0.7052,0.7058,0.7011,0.7091,0.7218,0.7233,0.7062,0.7061,0.7059,0,0.6781,0.6837,0.6893,0.6906,0.6929,0.6956,0.6967,0.6988,0.701,0.704,0.7055,0.709,0.711,0.7139,0.7139,0.7108,0.7211,0.7168,0.7216,0.7217,0.7241,0.7239,0.7376,0.7251,0.7251,0.7251,0.725,0,0.6882,0.6932,0.6929,0.6964,0.702,0.7012,0.7069,0.7078,0.7097,0.7134,0.7116,0.7153,0.7149,0.7186,0.7186,0.7246,0.7255,0.726,0.726,0.7262,0.7262,0.7278,0.7272,0.7254,0.7253,0.7253,0.7252,0,0.6981,0.698,0.704,0.7057,0.7062,0.7104,0.7119,0.7154,0.7157,0.7205,0.7216,0.7223,0.7266,0.7268,0.7318,0.7319,0.7392,0.7384,0.7384,0.7384,0.7432,0.7429,0.7586,0.7607,0.7466,0.7467,0.7468,0,0.7046,0.7084,0.7105,0.7128,0.7141,0.7179,0.7202,0.7196,0.7221,0.7251,0.7282,0.7323,0.7356,0.7427,0.7438,0.7477,0.7471,0.7523,0.7477,0.7479,0.7475,0.7473,0.7478,0.7533,0.7534,0.7536,0.7537,0,0.7162,0.7161,0.7193,0.7227,0.7254,0.728,0.7305,0.7326,0.7323,0.7353,0.7396,0.7421,0.7472,0.7515,0.7553,0.7567,0.7553,0.7551,0.7565,0.7569,0.7569,0.7572,0.7411,0.7548,0.7547,0.7546,0.7545,0.7545,0.7248,0.7282,0.7302,0.734,0.7358,0.7382,0.7415,0.7423,0.7458,0.7499,0.7493,0.7543,0.7567,0.7617,0.7634,0.7674,0.7657,0.7676,0.7681,0.7687,0.7693,0.756,0.7681,0.7681,0.768,0.768,0.768,0,0.7366,0.7378,0.7413,0.7447,0.7478,0.746,0.7486,0.7514,0.7557,0.758,0.7613,0.7664,0.7706,0.772,0.7761,0.7791,0.7785,0.7802,0.7801,0.7805,0.7705,0.769,0.7805,0.7805,0.7805,0.7805,0.7805,0.7805,0.7431,0.7488,0.7489,0.7556,0.7568,0.7615,0.7632,0.7655,0.7674,0.7732,0.7765,0.7774,0.7795,0.7837,0.7876,0.7879,0.7896,0.7916,0.7917,0.7824,0.7811,0.7799,0.7786,0.7919,0.7919,0.8014,0.8015,0.8015]},{"header":{"parameterUnit":"m.s-1","parameterCategory":1,"la1":30.2991,"la2":30.254,"lo1":-89.0895,"lo2":-89.0444,"dy":0.0017,"dx":0.0017,"nx":28,"ny":28,"refTime":"2025-07-29T03:00:00:Z","depth":0,"parameterNumber":3,"parameterNumberName":"V-component_of_WINDS"},"data":[0,0,0,0,0,0,0,0,0,0,0,0,0,0,0,0,0,0,0,0,0,0,0,0,0,0,0,0,0,0,0,0,0,0,0,0,0,0,0,0,0,0,0,0,0,0,0,0,0,0,0,0,0,0,0,0,0,0,-1.4168,-1.4166,0,-1.3931,-1.3928,-1.3925,-1.3868,-1.387,-1.3872,-1.3873,-1.3615,-1.3607,-1.3599,0,0,0,0,0,0,0,0,0,0,0,0,0,-1.4561,-1.4554,-1.4169,-1.4166,-1.4163,-1.3931,-1.3928,-1.3925,-1.3868,-1.387,-1.3872,-1.3874,-1.3618,-1.3608,-1.3598,0,0,0,0,0,0,0,0,0,0,0,0,0,-1.4363,-1.4552,-1.4169,-1.4107,-1.4099,-1.3932,-1.3928,-1.3924,-1.3868,-1.387,-1.3872,-1.3875,-1.3621,-1.3609,-1.3597,-1.3471,0,0,-1.3559,-1.3553,0,0,0,0,0,0,0,0,-1.4375,-1.4349,-1.4119,-1.4111,-1.4102,-1.3932,-1.3972,-1.3771,-1.3867,-1.3955,-1.3873,-1.3876,-1.3718,-1.3698,-1.3647,-1.3459,-1.3447,-1.3557,-1.355,-1.3544,-1.3541,0,0,0,0,0,0,0,-1.4388,-1.4359,-1.4074,-1.4116,-1.4105,-1.4087,-1.4061,-1.3934,-1.3825,-1.3947,-1.3943,-1.3916,-1.3713,-1.3659,-1.3641,-1.3444,-1.3558,-1.3547,-1.3539,-1.3534,-1.3139,-1.3136,0,0,0,0,0,0,-1.4415,-1.4371,-1.4082,-1.4067,-1.4248,-1.4078,-1.4049,-1.3984,-1.3827,-1.3805,-1.3914,-1.3915,-1.368,-1.3655,-1.3631,-1.3472,-1.3545,-1.3533,-1.3526,-1.3142,-1.3138,-1.3135,0,0,0,0,0,0,-1.4424,-1.439,-1.4091,-1.4218,-1.4178,-1.4069,-1.3995,-1.3978,-1.3924,-1.3802,-1.3781,-1.388,-1.3681,-1.3649,-1.3512,-1.3463,-1.3527,-1.3516,-1.3145,-1.3141,-1.3137,-1.3154,0,0,0,0,0,0,-1.4435,-1.4393,-1.4347,-1.4217,-1.4172,-1.3979,-1.3992,-1.3971,-1.3904,-1.3902,-1.3764,-1.3743,-1.368,-1.3531,-1.35,-1.3447,-1.3506,-1.3149,-1.3143,-1.3138,-1.3157,-1.3151,-1.3145,0,0,0,0,0,-1.4449,-1.4358,-1.4345,-1.431,-1.4112,-1.3977,-1.395,-1.3884,-1.39,-1.3851,-1.3773,-1.3747,-1.3474,-1.3518,-1.3481,-1.3424,-1.3152,-1.3145,-1.3139,-1.316,-1.3152,-1.3146,0,0,0,0,0,0,-1.4478,-1.434,-1.4323,-1.4188,-1.4096,-1.3968,-1.3903,-1.3877,-1.3774,-1.3776,-1.3694,-1.3663,-1.3531,-1.3464,-1.3514,-1.3293,-1.3313,-1.3299,-1.3342,-1.3333,-1.3327,-1.3344,-1.3495,0,0,0,0,0,-1.4471,-1.4377,-1.4258,-1.415,-1.4105,-1.4013,-1.3951,-1.3909,-1.3807,-1.3766,-1.3677,-1.3576,-1.3467,-1.3397,-1.329,-1.3149,-1.3116,-1.3092,-1.3086,-1.3081,-1.3069,-1.2988,-1.2975,-1.3113,-1.3113,-1.3113,0,0,-1.445,-1.4363,-1.4307,-1.4154,-1.4077,-1.3978,-1.3979,-1.3874,-1.3798,-1.3748,-1.3614,-1.3546,-1.3427,-1.3288,-1.3222,-1.3228,-1.3024,-1.3073,-1.307,-1.306,-1.298,-1.2967,-1.2955,-1.3109,-1.311,-1.311,0,0,-1.4362,-1.4288,-1.419,-1.4115,-1.4001,-1.394,-1.3917,-1.3793,-1.3748,-1.3614,-1.3574,-1.3481,-1.3296,-1.3213,-1.3147,-1.3032,-1.3004,-1.2999,-1.2966,-1.2888,-1.2877,-1.2867,-1.2824,-1.281,-1.2988,-1.2988,-1.2988,0,-1.435,-1.4203,-1.4142,-1.4039,-1.3972,-1.3929,-1.3826,-1.3754,-1.3609,-1.3562,-1.3572,-1.3341,-1.3257,-1.3098,-1.307,-1.3019,-1.2987,-1.3012,-1.2885,-1.2874,-1.2863,-1.2821,-1.2806,-1.2988,-1.2988,-1.2988,-1.2988,0,-1.4193,-1.4092,-1.4025,-1.3892,-1.3818,-1.3716,-1.3635,-1.3566,-1.3532,-1.3469,-1.3332,-1.3232,-1.3105,-1.3064,-1.3026,-1.2899,-1.2906,-1.2902,-1.2919,-1.2852,-1.281,-1.2794,-1.2988,-1.2988,-1.2988,-1.2988,0,0,-1.4112,-1.395,-1.3927,-1.3866,-1.3738,-1.3656,-1.3552,-1.3433,-1.3374,-1.3276,-1.3184,-1.3031,-1.3027,-1.2952,-1.2905,-1.2838,-1.2751,-1.2841,-1.2837,-1.2826,-1.2602,-1.2604,-1.2587,-1.2734,-1.2731,-1.2728,-1.2611,0,-1.4006,-1.3824,-1.3767,-1.3611,-1.3516,-1.3475,-1.3384,-1.3294,-1.3233,-1.314,-1.3071,-1.2963,-1.2968,-1.2922,-1.2854,-1.2776,-1.2704,-1.2784,-1.2643,-1.2639,-1.2672,-1.2565,-1.2567,-1.2461,-1.2595,-1.2592,-1.259,0,-1.3858,-1.3764,-1.3601,-1.3487,-1.3445,-1.3364,-1.325,-1.3164,-1.306,-1.302,-1.2939,-1.2899,-1.2785,-1.2812,-1.2652,-1.2708,-1.2647,-1.2601,-1.2595,-1.2576,-1.2608,-1.2541,-1.2426,-1.2409,-1.2565,-1.2567,-1.2569,0,-1.3813,-1.3645,-1.3526,-1.3475,-1.334,-1.3284,-1.3224,-1.3124,-1.3056,-1.2956,-1.291,-1.2797,-1.2733,-1.2644,-1.2573,-1.26,-1.2419,-1.244,-1.2379,-1.2381,-1.2339,-1.2342,-1.221,-1.2306,-1.2306,-1.2307,-1.2307,0,-1.3699,-1.36,-1.3504,-1.343,-1.3318,-1.3253,-1.3142,-1.3079,-1.2991,-1.2902,-1.2859,-1.2775,-1.2688,-1.2591,-1.2535,-1.241,-1.2382,-1.2344,-1.233,-1.2346,-1.2351,-1.2302,-1.2307,-1.2302,-1.2303,-1.2304,-1.2305,0,-1.3628,-1.356,-1.3428,-1.3313,-1.3282,-1.3204,-1.3103,-1.3028,-1.2969,-1.2856,-1.2826,-1.2729,-1.2614,-1.2537,-1.2387,-1.2349,-1.2213,-1.2201,-1.2249,-1.2242,-1.2184,-1.219,-1.2014,-1.1986,-1.2104,-1.2103,-1.2102,0,-1.3559,-1.3483,-1.3362,-1.3302,-1.3244,-1.3146,-1.3079,-1.3012,-1.2942,-1.282,-1.2759,-1.2643,-1.2546,-1.2363,-1.2277,-1.2163,-1.2146,-1.2093,-1.2128,-1.2148,-1.2142,-1.2147,-1.2138,-1.2086,-1.2085,-1.2084,-1.2083,0,-1.3441,-1.3413,-1.332,-1.3215,-1.3137,-1.305,-1.2962,-1.2914,-1.2831,-1.2755,-1.264,-1.2565,-1.2416,-1.23,-1.2178,-1.2112,-1.2082,-1.2074,-1.2053,-1.2068,-1.2098,-1.2079,-1.2231,-1.2077,-1.2078,-1.2078,-1.2078,-1.2079,-1.3366,-1.3297,-1.3203,-1.31,-1.3029,-1.2949,-1.2874,-1.2807,-1.2711,-1.2588,-1.2554,-1.2433,-1.2331,-1.2166,-1.2099,-1.2001,-1.2005,-1.1976,-1.1968,-1.1961,-1.196,-1.2118,-1.1979,-1.1979,-1.1979,-1.1979,-1.1979,0,-1.3245,-1.3184,-1.3091,-1.2973,-1.2892,-1.2879,-1.2781,-1.2713,-1.2609,-1.2519,-1.2427,-1.2294,-1.2182,-1.209,-1.1973,-1.1912,-1.1896,-1.1884,-1.1885,-1.187,-1.1964,-1.1992,-1.1899,-1.1899,-1.1899,-1.1899,-1.1899,-1.1899,-1.3172,-1.3055,-1.3016,-1.2861,-1.2799,-1.2685,-1.263,-1.2555,-1.2484,-1.2339,-1.2248,-1.2191,-1.2099,-1.1976,-1.1872,-1.1847,-1.1805,-1.1795,-1.1767,-1.1855,-1.1864,-1.1872,-1.1899,-1.1787,-1.1787,-1.1682,-1.1681,-1.168]}]]